Weather History for Morgantown, WV

Change the Weather History Date:

Sunday, February 8, 2009

  Actual Average Record
Temperature  
Mean Temperature 44 °F 33 °F  
Max Temperature 55 °F 41 °F 66 °F (2001)
Min Temperature 32 °F 25 °F -8 °F (1972)
Degree Days  
Heating Degree Days 21 32  
Month to date heating degree days 301 260  
Since 1 July heating degree days 3455 3287  
Cooling Degree Days 0 0  
Month to date cooling degree days 0 0  
Year to date cooling degree days 0 0  
Moisture  
Dew Point 43 °F    
Average Humidity 72    
Maximum Humidity 93    
Minimum Humidity 50    
Precipitation  
Precipitation 0.23 in 0.09 in 0.48 in (1961)
Month to date precipitation 0.30 0.72  
Year to date precipitation 3.12 3.53  
Snow  
Snow 0.00 in - - ()
Month to date snowfall 0.0  
Snow Depth 0.00 in    
Sea Level Pressure  
Sea Level Pressure 30.19 in    
Wind  
Wind Speed 5 mph (WSW)    
Max Wind Speed 14 mph    
Max Gust Speed 20 mph    
Visibility 7 miles    
Events Rain    
T = Trace of Precipitation, MM = Missing Value Source: NWS Daily Summary

Daily Weather History Graph

Daily Weather History Graph

Search for Another Location

Airport:

Trip Planner

Search our weather history database for the weather conditions in past years. The results will help you decide how hot, cold, wet, or windy it might be!

Date:

Astronomy

Feb. 08, 2009 Rise Set
Actual Time 7:20 AM EST 5:48 PM EST
Civil Twilight 6:52 AM EST 6:16 PM EST
Nautical Twilight 6:20 AM EST 6:48 PM EST
Astronomical Twilight 5:48 AM EST 7:19 PM EST
Moon 4:56 PM EST (2/8) 6:39 AM EST (2/8)
Length of Visible Light 11h 24m
Length of Day
10h 28m
Waxing Gibbous, 99% of the Moon is Illuminated
Feb 8
Waxing Gibbous
Feb 9
Full
Feb 16
Last Quarter
Feb 24
New
Mar 4
First Quarter

Hourly Weather History & Observations

Time (EST) Temp. Windchill Dew Point Humidity Pressure Visibility Wind Dir Wind Speed Gust Speed Precip Events Conditions
12:51 AM 50.0 °F - 48.2 °F 94% 30.13 in 2.5 mi South 4.6 mph - 0.03 in Rain Light Rain
12:53 AM 50.0 °F - 48.9 °F 96% 30.13 in 2.5 mi SSW 4.6 mph - 0.03 in Rain Light Rain
1:01 AM 50.0 °F - 48.2 °F 94% 30.13 in 3.0 mi SSW 4.6 mph - 0.01 in Rain Light Rain
1:53 AM 50.0 °F - 48.9 °F 96% 30.13 in 4.0 mi SSW 6.9 mph - 0.03 in Rain Light Rain
2:13 AM 50.0 °F - 48.2 °F 94% 30.12 in 3.0 mi SSW 5.8 mph - 0.01 in Rain Light Rain
2:37 AM 50.0 °F - 48.2 °F 94% 30.12 in 2.5 mi South 6.9 mph - 0.02 in Rain Light Rain
2:48 AM 50.0 °F - 48.2 °F 94% 30.12 in 2.0 mi SSW 4.6 mph - 0.02 in Rain Light Rain
2:53 AM 50.0 °F - 48.9 °F 96% 30.12 in 2.0 mi SSW 3.5 mph - 0.03 in Rain Light Rain
3:12 AM 50.0 °F - 48.2 °F 94% 30.12 in 5.0 mi SSW 5.8 mph - 0.01 in   Overcast
3:53 AM 48.9 °F - 48.9 °F 100% 30.11 in 8.0 mi SSW 6.9 mph - 0.01 in   Overcast
4:34 AM 50.0 °F - 48.2 °F 94% 30.10 in 10.0 mi SSW 5.8 mph - 0.01 in   Overcast
4:51 AM 50.0 °F - 48.2 °F 94% 30.10 in 10.0 mi South 4.6 mph - 0.01 in   Overcast
4:53 AM 50.0 °F - 48.9 °F 96% 30.10 in 10.0 mi SSW 5.8 mph - 0.01 in   Overcast
5:04 AM 50.0 °F - 48.2 °F 94% 30.10 in 8.0 mi SSW 5.8 mph - N/A   Overcast
5:31 AM 50.0 °F - 48.2 °F 94% 30.11 in 5.0 mi SW 6.9 mph - 0.05 in Rain Rain
5:43 AM 50.0 °F - 48.2 °F 94% 30.11 in 5.0 mi SW 6.9 mph - 0.06 in Rain Light Rain
5:53 AM 50.0 °F - 48.9 °F 96% 30.12 in 4.0 mi SW 6.9 mph - 0.06 in Rain Light Rain
6:21 AM 50.0 °F - 48.2 °F 94% 30.12 in 5.0 mi SW 5.8 mph - 0.01 in   Overcast
6:26 AM 50.0 °F - 48.2 °F 94% 30.13 in 2.5 mi SW 5.8 mph - 0.04 in Rain Rain
6:40 AM 50.0 °F - 48.2 °F 94% 30.13 in 5.0 mi Variable 3.5 mph - 0.05 in   Overcast
6:53 AM 50.0 °F - 50.0 °F 100% 30.14 in 6.0 mi SW 3.5 mph - 0.05 in   Overcast
7:53 AM 50.0 °F - 48.9 °F 96% 30.16 in 10.0 mi WSW 3.5 mph - 0.00 in   Overcast
8:04 AM 50.0 °F - 48.2 °F 94% 30.17 in 10.0 mi WNW 5.8 mph - N/A   Overcast
8:16 AM 50.0 °F - 48.2 °F 94% 30.18 in 10.0 mi Variable 4.6 mph - N/A   Overcast
8:24 AM 50.0 °F - 48.2 °F 94% 30.18 in 10.0 mi West 6.9 mph - N/A   Overcast
8:53 AM 50.0 °F - 46.0 °F 86% 30.19 in 10.0 mi Variable 5.8 mph - N/A   Overcast
9:37 AM 50.0 °F - 44.6 °F 82% 30.20 in 10.0 mi Variable 5.8 mph - N/A   Mostly Cloudy
9:53 AM 50.0 °F - 43.0 °F 77% 30.21 in 10.0 mi NW 3.5 mph - N/A   Overcast
10:05 AM 50.0 °F - 42.8 °F 76% 30.21 in 10.0 mi Variable 6.9 mph - N/A   Overcast
10:20 AM 50.0 °F - 42.8 °F 76% 30.22 in 10.0 mi West 6.9 mph - N/A   Mostly Cloudy
10:53 AM 52.0 °F - 39.9 °F 63% 30.24 in 10.0 mi West 6.9 mph - 0.01 in   Mostly Cloudy
11:53 AM 52.0 °F - 39.0 °F 61% 30.24 in 10.0 mi West 11.5 mph 19.6 mph N/A   Mostly Cloudy
12:53 PM 53.1 °F - 37.9 °F 57% 30.24 in 10.0 mi West 13.8 mph - N/A   Mostly Cloudy
1:53 PM 54.0 °F - 37.9 °F 55% 30.23 in 10.0 mi West 8.1 mph - N/A   Partly Cloudy
2:53 PM 53.1 °F - 36.0 °F 52% 30.24 in 10.0 mi West 6.9 mph - N/A   Mostly Cloudy
3:53 PM 53.1 °F - 35.1 °F 50% 30.26 in 10.0 mi NNW 10.4 mph 18.4 mph N/A   Scattered Clouds
4:53 PM 50.0 °F - 33.1 °F 52% 30.27 in 10.0 mi NNW 5.8 mph - N/A   Clear
5:53 PM 46.9 °F - 33.1 °F 59% 30.29 in 10.0 mi NNW 4.6 mph - N/A   Clear
6:53 PM 41.0 °F 39.0 °F 30.9 °F 67% 30.31 in 10.0 mi NNE 3.5 mph - N/A   Clear
7:53 PM 39.9 °F - 30.9 °F 70% 30.33 in 10.0 mi Calm Calm - N/A   Clear
8:53 PM 39.0 °F - 30.0 °F 70% 30.33 in 9.0 mi Calm Calm - N/A   Clear
9:53 PM 37.0 °F - 30.0 °F 76% 30.35 in 7.0 mi Calm Calm - N/A   Clear
10:53 PM 32.0 °F - 28.9 °F 88% 30.36 in 6.0 mi Calm Calm - N/A   Clear
11:53 PM 33.1 °F - 30.0 °F 89% 30.36 in 5.0 mi Calm Calm - N/A   Clear